ATLAS CENTAUR 2 DEB, 700

Orbit data source: Space-Track

ATLAS CENTAUR 2 DEB, 700 is space debris in LEO originally from a launch on Wed, 27 Nov 1963 UTC launched from the Air Force Eastern Test Range (AFETR). Debris objects in space refer to the collection of defunct objects orbiting the Earth. Examples of debris include non-operational satellites, rocket bodies, and fragments generated from explosions, collisions, or faulty payload assembly.

Loading next visibility...
Identifier
700, 1963-047F
Orbit
LEO
Country
Flag of USUS
Related business
Manufacturer
GD/Convair
Mission
Spacecraft
Bus & Motor
CENTAUR PART, Unknown motor
Mass
Unknown
Launch date (UTC)
1963-11-27 (62 years ago)
Launch vehicle
Unknown
Launch site
Air Force Eastern Test Range (AFETR)
Object type
Payload
Rocket body
Debris
Shape & HBR
Unknown
Radar Cross Section
0.510 m², Medium (>0.1 m² and < 1m²)

Expand to show TLE details & history
Last TLE update: 14 hours ago

TLE from 14 hours ago
0 ATLAS CENTAUR 2 DEB
1 00700U 63047F   25242.73352953  .00000216  00000-0  59074-4 0  9997
2 00700  30.4836  32.9337 0718074 336.2988  20.6022 13.39987363 11147
Epoch: 2025-08-30T17:36Z
TLE epoch observation values (Epoch: 2025-08-30T17:36:16.951Z)
Latitude
Longitude
149.69949°
Altitude
610.059 km
Speed
7.803 km/s
True Right ascension
02h 11m 44s
True Declination
0° 00' 00"
Sunlit
Object was in full shadow at epoch
Visualization orbit readout
Latitude
Unknown
Longitude
Unknown
Altitude
Unknown
Speed
Unknown
Apparent Right ascension
Unknown
Apparent Declination
Unknown
Sunlit
N/A
Visualization observer readout
Local Sidereal Time
23:18:18
Azimuth
Unknown
Elevation
Unknown
Doppler factor
Unknown
Orbital elements
Apogee altitude
1,650.889 km
Perigee altitude
575.055 km
Semi-major axis
7,491.109 km
Eccentricity
0.07181
Inclination
30.4836°
RAAN
32.9337°
Arg. of periapsis
336.2988°
True anomaly
23.76051°
Mean anomaly
20.6022°
Eccentric anomaly
22.15365°
Mean motion
3.34753 °/min
Orbital period
107.54 mins
BSTAR
0.000059074
Loading maneuver chart data...
Computing Atmospheric mass density...

Documentation

Showing up to 5 results
|